SHT2V EGLL-EGCC

Flight info

Callsign SHT2V
Flight time 0h 31m
Altitude 18000
Route ULTIB T420 ELVOS
Aircraft A319/M-SDE3FGHIRWY/LB1

Departure

Time 2026-05-05 06:45
Airport London Heathrow Airport (EGLL)

Arrival

Time 2026-05-05 07:16
Airport Manchester Airport (EGCC)
Time Latitude Longitude Altitude Speed Heading
2026-05-05 06:10 51.46994 -0.48621 86 ft 0 kts 269°
2026-05-05 06:12 51.46994 -0.48593 86 ft 0 kts 269°
2026-05-05 06:36 51.46994 -0.48587 86 ft 3 kts 270°
2026-05-05 06:36 51.46994 -0.48545 86 ft 4 kts 269°
2026-05-05 06:36 51.46996 -0.48502 86 ft 4 kts 255°
2026-05-05 06:36 51.47006 -0.48473 91 ft 3 kts 189°
2026-05-05 06:37 51.47010 -0.48471 86 ft 0 kts 180°
2026-05-05 06:40 51.47008 -0.48471 86 ft 2 kts 180°
2026-05-05 06:41 51.46973 -0.48472 89 ft 8 kts 180°
2026-05-05 06:41 51.46911 -0.48472 88 ft 10 kts 180°
2026-05-05 06:41 51.46845 -0.48471 90 ft 10 kts 179°
2026-05-05 06:41 51.46768 -0.48471 86 ft 11 kts 188°
2026-05-05 06:42 51.46741 -0.48578 88 ft 12 kts 269°
2026-05-05 06:42 51.46734 -0.48724 89 ft 14 kts 244°
2026-05-05 06:42 51.46640 -0.48747 86 ft 15 kts 186°
2026-05-05 06:42 51.46532 -0.48789 87 ft 17 kts 174°
2026-05-05 06:43 51.46480 -0.48667 86 ft 0 kts 88°
2026-05-05 06:43 51.46480 -0.48654 86 ft 2 kts 88°
2026-05-05 06:43 51.46480 -0.48650 86 ft 0 kts 88°
2026-05-05 06:44 51.46481 -0.48614 89 ft 14 kts 88°
2026-05-05 06:44 51.46485 -0.48112 90 ft 76 kts 90°
2026-05-05 06:44 51.46485 -0.46948 90 ft 132 kts 90°
2026-05-05 06:44 51.46485 -0.45231 229 ft 166 kts 88°
2026-05-05 06:45 51.46461 -0.43445 1018 ft 157 kts 88°
2026-05-05 06:45 51.46535 -0.41625 1451 ft 175 kts 68°
2026-05-05 06:45 51.47254 -0.39934 1824 ft 195 kts 45°
2026-05-05 06:45 51.48193 -0.38239 2293 ft 219 kts 47°
2026-05-05 06:46 51.49242 -0.36274 2909 ft 240 kts 48°
2026-05-05 06:46 51.49976 -0.34878 3531 ft 245 kts 48°
2026-05-05 06:46 51.51451 -0.32044 4760 ft 255 kts 49°
2026-05-05 06:46 51.52405 -0.29581 5595 ft 268 kts 66°
2026-05-05 06:47 51.53039 -0.26744 6254 ft 272 kts 69°
2026-05-05 06:47 51.53796 -0.23920 7155 ft 276 kts 63°
2026-05-05 06:47 51.54891 -0.21390 8019 ft 278 kts 40°
2026-05-05 06:47 51.56545 -0.19812 8891 ft 280 kts 15°
2026-05-05 06:48 51.58474 -0.19480 9730 ft 283 kts 351°
2026-05-05 06:48 51.60331 -0.20489 10484 ft 286 kts 327°
2026-05-05 06:48 51.61981 -0.22472 10860 ft 307 kts 321°
2026-05-05 06:48 51.63694 -0.24720 11211 ft 326 kts 320°
2026-05-05 06:49 51.65456 -0.27077 11846 ft 333 kts 320°
2026-05-05 06:49 51.67388 -0.29203 12554 ft 338 kts 328°
2026-05-05 06:49 51.69416 -0.31187 13280 ft 343 kts 329°
2026-05-05 06:49 51.71472 -0.33179 13964 ft 348 kts 329°
2026-05-05 06:50 51.73566 -0.35192 14584 ft 352 kts 329°
2026-05-05 06:50 51.75687 -0.37226 15205 ft 357 kts 329°
2026-05-05 06:50 51.77836 -0.39293 15855 ft 361 kts 329°
2026-05-05 06:50 51.80003 -0.41383 16466 ft 365 kts 329°
2026-05-05 06:51 51.82198 -0.43504 17107 ft 369 kts 328°
2026-05-05 06:51 51.84412 -0.45650 17737 ft 373 kts 328°
2026-05-05 06:51 51.86646 -0.47822 17956 ft 375 kts 328°
2026-05-05 06:51 51.88842 -0.49968 17999 ft 372 kts 328°
2026-05-05 06:52 51.91081 -0.52162 17999 ft 371 kts 328°
2026-05-05 06:52 51.93258 -0.54288 18007 ft 370 kts 328°
2026-05-05 06:52 51.94748 -0.55741 18006 ft 370 kts 328°
2026-05-05 06:52 51.97673 -0.58592 17997 ft 370 kts 328°
2026-05-05 06:53 51.99159 -0.60045 18007 ft 370 kts 328°
2026-05-05 06:53 52.02085 -0.62904 18004 ft 370 kts 328°
2026-05-05 06:53 52.04290 -0.65062 18031 ft 370 kts 328°
2026-05-05 06:53 52.05775 -0.66520 18024 ft 369 kts 328°
2026-05-05 06:54 52.07970 -0.68684 18029 ft 368 kts 328°
2026-05-05 06:54 52.10159 -0.70842 18032 ft 368 kts 328°
2026-05-05 06:54 52.12355 -0.73006 18027 ft 368 kts 328°
2026-05-05 06:54 52.14545 -0.75163 18023 ft 368 kts 328°
2026-05-05 06:55 52.16736 -0.77322 18033 ft 368 kts 328°
2026-05-05 06:55 52.18932 -0.79485 18032 ft 368 kts 328°
2026-05-05 06:55 52.21122 -0.81646 18031 ft 368 kts 328°
2026-05-05 06:55 52.23314 -0.83814 18032 ft 368 kts 328°
2026-05-05 06:56 52.25507 -0.85988 18033 ft 368 kts 328°
2026-05-05 06:56 52.27670 -0.88136 18027 ft 368 kts 328°
2026-05-05 06:56 52.29889 -0.90345 18038 ft 368 kts 327°
2026-05-05 06:56 52.32046 -0.92498 18039 ft 367 kts 327°
2026-05-05 06:57 52.34228 -0.94674 18041 ft 367 kts 327°
2026-05-05 06:57 52.36406 -0.96843 18040 ft 367 kts 327°
2026-05-05 06:57 52.38585 -0.99016 18038 ft 367 kts 327°
2026-05-05 06:57 52.40762 -1.01190 18022 ft 367 kts 327°
2026-05-05 06:58 52.42942 -1.03371 18023 ft 367 kts 327°
2026-05-05 06:58 52.45124 -1.05558 18026 ft 367 kts 327°
2026-05-05 06:58 52.47297 -1.07740 18030 ft 367 kts 327°
2026-05-05 06:58 52.49481 -1.09936 18032 ft 367 kts 327°
2026-05-05 06:59 52.51654 -1.12129 18025 ft 367 kts 327°
2026-05-05 06:59 52.53825 -1.14322 18027 ft 367 kts 326°
2026-05-05 06:59 52.56003 -1.16520 18046 ft 367 kts 326°
2026-05-05 06:59 52.58184 -1.18716 18046 ft 366 kts 326°
2026-05-05 07:00 52.60326 -1.20876 18032 ft 366 kts 326°
2026-05-05 07:00 52.62499 -1.23067 18029 ft 366 kts 326°
2026-05-05 07:00 52.64667 -1.25254 18032 ft 366 kts 326°
2026-05-05 07:00 52.66836 -1.27447 18032 ft 366 kts 326°
2026-05-05 07:01 52.69001 -1.29641 18035 ft 366 kts 326°
2026-05-05 07:01 52.71174 -1.31845 18034 ft 366 kts 326°
2026-05-05 07:01 52.73331 -1.34034 18036 ft 366 kts 326°
2026-05-05 07:01 52.75498 -1.36239 18043 ft 366 kts 326°
2026-05-05 07:02 52.77667 -1.38452 18058 ft 365 kts 325°
2026-05-05 07:02 52.79821 -1.40655 18057 ft 364 kts 325°
2026-05-05 07:02 52.81972 -1.42858 18046 ft 362 kts 325°
2026-05-05 07:02 52.84092 -1.45029 17702 ft 355 kts 325°
2026-05-05 07:03 52.86175 -1.47162 17276 ft 350 kts 325°
2026-05-05 07:03 52.88236 -1.49274 16856 ft 345 kts 325°
2026-05-05 07:03 52.90266 -1.51357 16441 ft 341 kts 325°
2026-05-05 07:03 52.92262 -1.53409 16033 ft 336 kts 325°
2026-05-05 07:04 52.94241 -1.55454 15628 ft 332 kts 325°
2026-05-05 07:04 52.96192 -1.57472 15232 ft 328 kts 326°
2026-05-05 07:04 52.98120 -1.59461 14836 ft 325 kts 326°
2026-05-05 07:04 53.00007 -1.61405 14455 ft 322 kts 326°
2026-05-05 07:05 53.01902 -1.63359 14077 ft 319 kts 326°
2026-05-05 07:05 53.03776 -1.65298 13678 ft 316 kts 326°
2026-05-05 07:05 53.05539 -1.67430 13248 ft 312 kts 315°
2026-05-05 07:05 53.06992 -1.70071 12837 ft 309 kts 309°
2026-05-05 07:06 53.08378 -1.72775 12414 ft 307 kts 309°
2026-05-05 07:06 53.09764 -1.75463 12003 ft 305 kts 309°
2026-05-05 07:06 53.11142 -1.78126 11593 ft 303 kts 309°
2026-05-05 07:06 53.12511 -1.80777 11191 ft 302 kts 309°
2026-05-05 07:07 53.13876 -1.83421 10799 ft 300 kts 309°
2026-05-05 07:07 53.15233 -1.86055 10413 ft 299 kts 309°
2026-05-05 07:07 53.16579 -1.88677 10031 ft 297 kts 309°
2026-05-05 07:07 53.17922 -1.91299 9613 ft 296 kts 309°
2026-05-05 07:08 53.19254 -1.93907 9187 ft 295 kts 309°
2026-05-05 07:08 53.20578 -1.96493 8777 ft 293 kts 309°
2026-05-05 07:08 53.21899 -1.99069 8382 ft 289 kts 310°
2026-05-05 07:08 53.23374 -2.01251 7994 ft 280 kts 328°
2026-05-05 07:09 53.25150 -2.02427 7622 ft 273 kts 347°
2026-05-05 07:09 53.27027 -2.02548 7248 ft 267 kts
2026-05-05 07:09 53.28858 -2.02309 6877 ft 261 kts
2026-05-05 07:09 53.30650 -2.02086 6510 ft 255 kts
2026-05-05 07:10 53.32401 -2.01872 6121 ft 251 kts
2026-05-05 07:10 53.34154 -2.01659 5736 ft 253 kts
2026-05-05 07:10 53.35912 -2.01445 5349 ft 255 kts
2026-05-05 07:10 53.37672 -2.01232 4970 ft 257 kts
2026-05-05 07:11 53.39483 -2.01010 4616 ft 257 kts
2026-05-05 07:11 53.41237 -2.00793 4296 ft 254 kts
2026-05-05 07:11 53.42969 -2.00584 3977 ft 244 kts
2026-05-05 07:11 53.44597 -2.00912 3654 ft 232 kts 333°
2026-05-05 07:12 53.45678 -2.02755 3349 ft 222 kts 293°
2026-05-05 07:12 53.45748 -2.05245 3053 ft 215 kts 255°
2026-05-05 07:12 53.45059 -2.07359 3006 ft 198 kts 236°
2026-05-05 07:12 53.44232 -2.09089 2887 ft 186 kts 234°
2026-05-05 07:13 53.43458 -2.10691 2641 ft 165 kts 234°
2026-05-05 07:13 53.42780 -2.12099 2435 ft 148 kts 235°
2026-05-05 07:13 53.42153 -2.13407 2236 ft 141 kts 236°
2026-05-05 07:13 53.41545 -2.14674 2050 ft 138 kts 235°
2026-05-05 07:14 53.40945 -2.15926 1865 ft 137 kts 235°
2026-05-05 07:14 53.40348 -2.17168 1680 ft 136 kts 235°
2026-05-05 07:14 53.39757 -2.18396 1484 ft 135 kts 234°
2026-05-05 07:14 53.39168 -2.19621 1301 ft 135 kts 234°
2026-05-05 07:15 53.38585 -2.20831 1089 ft 134 kts 233°
2026-05-05 07:15 53.38009 -2.22054 866 ft 132 kts 233°
2026-05-05 07:15 53.37433 -2.23249 672 ft 131 kts 232°
2026-05-05 07:15 53.36854 -2.24427 515 ft 130 kts 231°
2026-05-05 07:16 53.36288 -2.25598 321 ft 129 kts 232°
2026-05-05 07:16 53.35752 -2.26709 270 ft 112 kts 232°
2026-05-05 07:16 53.35429 -2.27389 245 ft 42 kts 231°
2026-05-05 07:16 53.35278 -2.27753 238 ft 40 kts 248°
2026-05-05 07:17 53.35240 -2.28068 231 ft 14 kts 264°
2026-05-05 07:17 53.35248 -2.28218 233 ft 7 kts 310°
2026-05-05 07:17 53.35279 -2.28213 232 ft 5 kts 12°
2026-05-05 07:17 53.35319 -2.28196 235 ft 8 kts 14°
2026-05-05 07:18 53.35379 -2.28170 237 ft 11 kts 13°
2026-05-05 07:18 53.35479 -2.28133 234 ft 21 kts 21°
2026-05-05 07:18 53.35591 -2.27969 239 ft 14 kts 50°
2026-05-05 07:18 53.35670 -2.27885 243 ft 14 kts
2026-05-05 07:19 53.35770 -2.27869 248 ft 16 kts
2026-05-05 07:19 53.35860 -2.27855 253 ft 12 kts
2026-05-05 07:19 53.35945 -2.27854 255 ft 13 kts 347°
2026-05-05 07:19 53.36018 -2.27941 255 ft 14 kts 319°
2026-05-05 07:20 53.36071 -2.28016 255 ft 8 kts 319°
2026-05-05 07:20 53.36123 -2.28097 255 ft 13 kts 315°
2026-05-05 07:20 53.36195 -2.28218 255 ft 16 kts 315°
2026-05-05 07:20 53.36272 -2.28348 255 ft 17 kts 313°
2026-05-05 07:21 53.36373 -2.28474 255 ft 15 kts 352°
2026-05-05 07:21 53.36464 -2.28567 255 ft 14 kts 311°
2026-05-05 07:21 53.36542 -2.28695 255 ft 17 kts 315°
2026-05-05 07:21 53.36604 -2.28845 255 ft 16 kts 308°
2026-05-05 07:22 53.36687 -2.28988 255 ft 19 kts 313°
2026-05-05 07:22 53.36762 -2.29080 255 ft 8 kts
2026-05-05 07:22 53.36779 -2.29068 255 ft 0 kts 22°
2026-05-05 07:23 53.36783 -2.29065 255 ft 3 kts 21°
2026-05-05 07:23 53.36832 -2.29033 255 ft 10 kts 21°
2026-05-05 07:23 53.36890 -2.28951 255 ft 13 kts 45°
2026-05-05 07:23 53.36886 -2.28871 255 ft 5 kts 135°
2026-05-05 07:24 53.36871 -2.28847 255 ft 1 kts 135°
2026-05-05 07:24 53.36862 -2.28832 255 ft 2 kts 134°
2026-05-05 07:24 53.36862 -2.28831 255 ft 0 kts 134°